Pittsfield, MA

8:55 AM EDT on May 23, 2017 (GMT -0400)
Pittsfield Municipal

Weather History for KPSF - December, 2012

Change the Weather History Date:

Monday, December 3, 2012

  Actual Average Record
Temperature  
Mean Temperature 39 °F 32 °F  
Max Temperature 47 °F 39 °F 57 °F (1950)
Min Temperature 30 °F 24 °F 4 °F (1930)
Degree Days  
Heating Degree Days 26 34  
Month to date heating degree days 89 100  
Since 1 July heating degree days 1596 1751  
Cooling Degree Days 0 0  
Month to date cooling degree days 0 0  
Year to date cooling degree days 465 290  
Moisture  
Dew Point 38 °F    
Average Humidity 88    
Maximum Humidity 100    
Minimum Humidity 76    
Precipitation  
Precipitation T in 0.11 in 1.01 in (1967)
Month to date precipitation 0.28 0.30  
Year to date precipitation 32.79 42.68  
Sea Level Pressure  
Sea Level Pressure 30.15 in    
Wind  
Wind Speed 6 mph (WNW)    
Max Wind Speed 20 mph    
Max Gust Speed 25 mph    
Visibility 6 miles    
Events Fog , Rain    
T = Trace of Precipitation, MM = Missing Value Source: NWS Daily Summary

Daily Weather History Graph

Daily Weather History Graph

Search for Another Location

Airport or City:

Trip Planner

Search our weather history database for the weather conditions in past years. The results will help you decide how hot, cold, wet, or windy it might be!

Date:

Astronomy

Dec. 03, 2012 Rise Set
Actual Time 7:05 AM EST 4:20 PM EST
Civil Twilight 6:33 AM EST 4:52 PM EST
Nautical Twilight 5:58 AM EST 5:27 PM EST
Astronomical Twilight 5:24 AM EST 6:01 PM EST
Moon 9:08 PM EST (12/3) 10:24 AM EST (12/3)
Length of Visible Light 10h 18m
Length of Day
9h 15m
Waning Gibbous, 78% of the Moon is Illuminated
Dec 3
Waning Gibbous
Dec 6
Last Quarter
Dec 13
New
Dec 20
First Quarter
Dec 28
Full

Hourly Weather History & Observations

Time (EST) Temp. Windchill Dew Point Humidity Pressure Visibility Wind Dir Wind Speed Gust Speed Precip Events Conditions
12:08 AM 44.6 °F - 42.8 °F 93% 30.02 in 4.0 mi Calm Calm - 0.00 in Rain Light Rain
12:54 AM 45.0 °F 41.2 °F 43.0 °F 93% 30.01 in 5.0 mi West 6.9 mph - 0.00 in   Overcast
1:38 AM 44.6 °F 42.2 °F 42.8 °F 93% 30.02 in 4.0 mi WNW 4.6 mph - N/A   Overcast
1:54 AM 44.1 °F 40.8 °F 43.0 °F 96% 30.02 in 4.0 mi WSW 5.8 mph - N/A   Overcast
2:54 AM 44.1 °F - 44.1 °F 100% 30.03 in 4.0 mi Calm Calm - N/A   Overcast
3:01 AM 44.6 °F - 42.8 °F 93% 30.04 in 4.0 mi Calm Calm - N/A   Overcast
3:15 AM 44.6 °F - 42.8 °F 93% 30.04 in 4.0 mi Calm Calm - N/A   Overcast
3:33 AM 42.8 °F - 42.8 °F 100% 30.04 in 2.0 mi Calm Calm - N/A   Overcast
3:54 AM 44.1 °F 40.8 °F 43.0 °F 96% 30.04 in 3.0 mi WSW 5.8 mph - N/A   Overcast
4:28 AM 46.4 °F 44.3 °F 44.6 °F 93% 30.05 in 6.0 mi WSW 4.6 mph - N/A   Overcast
4:54 AM 45.0 °F - 43.0 °F 93% 30.06 in 3.0 mi Calm Calm - N/A   Overcast
5:14 AM 46.4 °F 42.9 °F 44.6 °F 93% 30.07 in 6.0 mi West 6.9 mph 19.6 mph N/A   Overcast
5:44 AM 46.4 °F 44.3 °F 42.8 °F 87% 30.08 in 8.0 mi Variable 4.6 mph - N/A   Mostly Cloudy
5:54 AM 46.0 °F 41.9 °F 42.1 °F 86% 30.08 in 9.0 mi NNW 8.1 mph - N/A   Mostly Cloudy
6:11 AM 46.4 °F 40.7 °F 42.8 °F 87% 30.09 in 10.0 mi WNW 12.7 mph 21.9 mph N/A   Scattered Clouds
6:31 AM 46.4 °F 40.7 °F 41.0 °F 81% 30.11 in 10.0 mi NW 12.7 mph 20.7 mph N/A   Mostly Cloudy
6:54 AM 46.0 °F 41.0 °F 41.0 °F 83% 30.11 in 10.0 mi WNW 10.4 mph 18.4 mph N/A   Overcast
7:49 AM 44.6 °F 40.7 °F 39.2 °F 81% 30.15 in 10.0 mi NNW 6.9 mph 16.1 mph N/A   Overcast
7:54 AM 45.0 °F 43.5 °F 39.9 °F 82% 30.15 in 10.0 mi Variable 3.5 mph - N/A   Overcast
8:47 AM 44.6 °F 42.2 °F 39.2 °F 81% 30.16 in 10.0 mi WNW 4.6 mph - N/A   Overcast
8:54 AM 44.1 °F 41.5 °F 39.9 °F 85% 30.16 in 10.0 mi Variable 4.6 mph - N/A   Overcast
9:54 AM 45.0 °F 38.2 °F 39.9 °F 82% 30.17 in 10.0 mi West 15.0 mph 20.7 mph N/A   Overcast
10:27 AM 44.6 °F 38.8 °F 39.2 °F 81% 30.18 in 10.0 mi WNW 11.5 mph 23.0 mph N/A   Overcast
10:54 AM 45.0 °F 38.5 °F 39.0 °F 80% 30.17 in 10.0 mi WNW 13.8 mph 23.0 mph N/A   Overcast
11:54 AM 45.0 °F 40.1 °F 37.9 °F 76% 30.17 in 10.0 mi NW 9.2 mph 16.1 mph N/A   Overcast
12:54 PM 45.0 °F 39.7 °F 37.9 °F 76% 30.19 in 10.0 mi WNW 10.4 mph - N/A   Overcast
1:54 PM 45.0 °F 40.1 °F 37.0 °F 74% 30.16 in 10.0 mi NW 9.2 mph - N/A   Mostly Cloudy
2:54 PM 45.0 °F 40.1 °F 37.9 °F 76% 30.17 in 10.0 mi NW 9.2 mph - N/A   Overcast
3:54 PM 45.0 °F 41.2 °F 37.9 °F 76% 30.18 in 10.0 mi NW 6.9 mph - N/A   Overcast
4:54 PM 43.0 °F 37.7 °F 37.9 °F 82% 30.21 in 10.0 mi WNW 9.2 mph - N/A   Overcast
5:30 PM 42.8 °F 38.0 °F 37.4 °F 81% 30.22 in 10.0 mi West 8.1 mph - N/A   Overcast
5:54 PM 43.0 °F 41.3 °F 37.0 °F 80% 30.22 in 10.0 mi WNW 3.5 mph - N/A   Overcast
6:29 PM 39.2 °F 37.0 °F 35.6 °F 87% 30.23 in 10.0 mi West 3.5 mph - N/A   Partly Cloudy
6:54 PM 37.9 °F 35.5 °F 36.0 °F 93% 30.24 in 10.0 mi SW 3.5 mph - N/A   Clear
7:54 PM 34.0 °F - 33.1 °F 96% 30.25 in 8.0 mi Calm Calm - N/A   Clear
8:54 PM 33.1 °F - 32.0 °F 96% 30.25 in 4.0 mi Calm Calm - N/A   Clear
8:58 PM 32.0 °F - 30.2 °F 93% 30.23 in 1.5 mi Calm Calm - N/A   Partly Cloudy
9:00 PM 30.2 °F - 30.2 °F 100% 30.23 in 0.8 mi Calm Calm - N/A   Mist
9:09 PM 33.8 °F - 32.0 °F 93% 30.24 in 1.0 mi Calm Calm - N/A   Mist
9:11 PM 33.8 °F - 32.0 °F 93% 30.24 in 2.0 mi Calm Calm - N/A   Scattered Clouds
9:19 PM 32.0 °F - 32.0 °F 100% 30.24 in 4.0 mi Calm Calm - N/A   Scattered Clouds
9:36 PM 33.8 °F - 32.0 °F 93% 30.24 in 1.8 mi Calm Calm - N/A   Scattered Clouds
9:43 PM 32.0 °F - 30.2 °F 93% 30.24 in 1.8 mi Calm Calm - N/A   Mostly Cloudy
9:49 PM 32.0 °F - 30.2 °F 93% 30.24 in 0.2 mi Calm Calm - N/A Fog Fog
9:54 PM 30.9 °F - 30.9 °F 100% 30.26 in 0.2 mi Calm Calm - N/A Fog Light Freezing Fog
10:54 PM 32.0 °F - 32.0 °F 100% 30.27 in 0.2 mi Calm Calm - N/A Fog Fog
11:54 PM 32.0 °F - 32.0 °F 100% 30.26 in 0.2 mi Calm Calm - N/A Fog Fog